Location: Saint-Gilles les Bains
(21.0539°S, 55.2287°E)
Time: 07:59:09
(UTC+04:00)

Hubble Space Telescope - Pass Details

Date: 17 June 2021
Orbit: 535 x 539 km, 28.5° (Epoch: 28 July)

Event Time Altitude Azimuth Distance (km) Brightness Sun altitude
Exits shadow 04:29:51 11° 124° (SE) 1,729 3.8 -32.6°
Drops below altitude 10° 04:30:06 10° 123° (ESE) 1,814 3.9 -32.5°
Sets 04:32:32 0° 112° (ESE) 2,691 5.0 -32.0°
